EGQK

Details ICAO EGQK
Name RAF Kinloss
Region United Kingdom
Timezone Europe/London (UTC+1.0)
Plans Departing 3
Arriving 6
Stats Elevation 22 ft / 7 m (AMSL)
Location 57.649410° -3.560597°
Runways 1
Magnetic Variation 2.607° W
Sunrise 2018-05-25 03:35:29 UTC / 2018-05-25 04:35:29 Local
Sunset 2018-05-25 20:49:45 UTC / 2018-05-25 21:49:45 Local
Advertisement - Login to hide

Runways

ID Width Length Bearing (true) Bearing (mag) Surface Threshold Offset Overrun Length
08 151 ft / 46 m 7,548 ft / 2,301 m 70.47° 73.08° Asphalt 0 ft / 0 m 82 ft / 25 m
26 151 ft / 46 m 7,548 ft / 2,301 m 250.51° 253.12° Asphalt 0 ft / 0 m 95 ft / 29 m

Approach Navaids

Runway Type Ident Frequency Range Bearing (true) Bearing (mag) Slope Elevation
26 Localiser IKS 109.70 MHz 18 nm / 33 km 254.03° 256.64° - 22 ft / 7 m (AMSL)
26 Glidescope IKS 109.70 MHz 10 nm / 19 km 250.49° 253.10° 3.00° 22 ft / 7 m (AMSL)

Map

Weather


0- 5 10 15 20 25 30 35+ Temperature / ° C

Clouds and Precipitation
Forecast for 2018-05-25 18:00 UTC. Updated 2 hours ago

Ground ~20,000 ft ~40,000 ft Winds

METAR

EGQK 251850Z AUTO 07011KT 9999 BKN006/// 10/09 Q1030

TAF

Not found

Frequencies

Tower 122.10 MHz Kinloss Tower
Departure 119.35 MHz Lossie Departure
Approach 123.30 MHz Lossie Director
Warning: Do not use this data for real-world aviation or navigation. No guarantee of current accuracy is given.